Flag for Gaza Strip Weather past 2 weeks in Gaza, Gaza Strip

Now
70 °F

Clear.


Feels Like: 70 °F
Forecast: 66 / 81 °F
Wind: 3 mph from North

Location: Ben Gurion International Airport

Current Time: Apr 28, 2015 at 12:26:26 AM

Latest Report: Apr 27, 2015 at 11:50 PM


Visibility: 10 mi

Pressure: 29.86 "Hg

Humidity: 53%

Dew point: 52 °F

Location of GazaLocation

Historic Weather in Gaza — Graph

°F

Gaza temperature yesterday

Maximum temperature yesterday: 90 °F (at 3:20 PM)
Minimum temperature yesterday: 55 °F (at 4:50 AM)
Average temperature yesterday: 74 °F

Past Weeks' High & Low Weather Summary

 TemperatureHumidityPressure
High90 °F (Apr 20, 1:20 PM)88% (Apr 14, 1:50 AM)30.30 "Hg (Apr 14, 1:50 AM)
Low50 °F (Apr 15, 5:20 AM)12% (Apr 20, 3:50 PM)29.83 "Hg (Apr 15, 1:20 PM)
Average65 °F61%30.05 "Hg
* Reported Apr 12 11:20 PM — Apr 27 11:20 PM, Gaza, Weather by CustomWeather, © 2015

Note: Actual official high and low records may vary slightly from our data, if they occured in-between our weather recording intervals... More about our weather records

Advertising

Gaza weather history for previous 24 hours

 ConditionsComfort  
Time TempWeatherWind HumidityBarometerVisibility
11:20 PM
Mon, Apr 27
72 °FClear.5 mph50%29.86 "Hg10 mi
10:50 PM72 °FClear.5 mph50%29.86 "Hg10 mi
10:20 PM73 °FClear.6 mph47%29.86 "Hg10 mi
9:50 PM73 °FClear.5 mph47%29.86 "Hg10 mi
9:20 PM75 °FClear.5 mph44%29.86 "Hg10 mi
8:50 PM75 °FClear.5 mph44%29.86 "Hg10 mi
8:20 PM75 °FClear.3 mph44%29.86 "Hg10 mi
7:50 PM77 °FSunny.5 mph44%29.86 "Hg10 mi
7:20 PM79 °FSunny.7 mph37%29.86 "Hg10 mi
6:50 PM84 °FSunny.5 mph25%29.83 "Hg10 mi
6:20 PM88 °FSunny.7 mph24%29.83 "Hg10 mi
5:50 PM90 °FSunny.7 mph20%29.83 "Hg10 mi
5:20 PM90 °FSunny.7 mph20%29.83 "Hg10 mi
4:50 PM90 °FSunny.8 mph21%29.86 "Hg10 mi
4:20 PM90 °FPassing clouds.8 mph26%29.86 "HgN/A
3:50 PM90 °FSunny.8 mph22%29.86 "Hg10 mi
3:20 PM90 °FSunny.7 mph20%29.86 "Hg10 mi
2:50 PM88 °FSunny.8 mph21%29.86 "Hg10 mi
2:20 PM88 °FSunny.8 mph27%29.86 "Hg10 mi
1:50 PM86 °FSunny.9 mph35%29.89 "Hg10 mi
1:20 PM88 °FPassing clouds.6 mph31%29.89 "HgN/A
12:50 PM86 °FPassing clouds.6 mph38%29.89 "HgN/A
12:20 PM84 °FPassing clouds.7 mph40%29.89 "HgN/A
11:50 AM84 °FSunny.5 mph35%29.92 "Hg10 mi
11:20 AM82 °FSunny.2 mph35%29.92 "Hg10 mi
10:50 AM81 °FSunny.1 mph34%29.92 "Hg10 mi
10:20 AM77 °FSunny.1 mph36%29.92 "Hg10 mi
9:50 AM75 °FSunny.1 mph44%29.92 "Hg10 mi
9:20 AM73 °FSunny.2 mph50%29.92 "Hg10 mi
8:50 AM68 °FSunny.1 mph56%29.92 "Hg10 mi
8:20 AM66 °FSunny.2 mph56%29.92 "Hg10 mi
7:50 AM64 °FSunny.2 mph60%29.92 "Hg10 mi
7:20 AM61 °FSunny.1 mph68%29.92 "Hg10 mi
6:20 AM57 °FClear.1 mph72%29.89 "Hg10 mi
5:50 AM57 °FClear.1 mph72%29.89 "Hg10 mi
5:20 AM57 °FClear.2 mph72%29.89 "Hg10 mi
4:50 AM55 °FClear.1 mph77%29.89 "Hg10 mi
4:20 AM57 °FClear.2 mph72%29.89 "Hg10 mi
3:50 AM59 °FClear.3 mph68%29.89 "Hg10 mi
3:20 AM61 °FClear.5 mph68%29.92 "Hg10 mi
2:50 AM61 °FClear.3 mph68%29.92 "Hg10 mi
2:20 AM61 °FClear.3 mph68%29.92 "Hg10 mi
1:50 AM61 °FClear.2 mph68%29.92 "Hg10 mi
1:20 AM61 °FClear.2 mph68%29.92 "Hg10 mi
12:50 AM61 °FClear.2 mph68%29.92 "Hg10 mi
12:20 AM63 °FClear.6 mph59%29.92 "Hg10 mi
Weather by CustomWeather, © 2015

See weather overviewHow to use our weather pages